Location: Unspecified
(43.8044°N, 11.0278°E)
Time: 06:49:04
(UTC+02:00)

Cosmos 2058 - Visible Passes

Search period start: 20 August 2014 00:00
Search period end: 30 August 2014 00:00
Orbit: 570 x 594 km, 82.5° (Epoch: 19 August)

Date Brightness Start Highest point End Pass type
(mag) Time Alt. Az. Time Alt. Az. Time Alt. Az.
20 Aug 5.5 00:41:02 10° NNE 00:42:14 17° NNE 00:42:14 17° NNE visible
20 Aug 5.8 02:18:18 10° NW 02:18:37 12° NW 02:18:37 12° NW visible
21 Aug 5.5 00:46:38 10° N 00:47:54 18° NNE 00:47:54 18° NNE visible
22 Aug 5.5 00:52:20 10° N 00:53:34 19° N 00:53:34 19° N visible
23 Aug 5.6 00:58:07 10° N 00:59:14 18° N 00:59:14 18° N visible
24 Aug 5.7 01:03:58 10° NNW 01:04:55 17° NNW 01:04:55 17° NNW visible
24 Aug 5.8 23:34:11 10° NE 23:34:14 10° NE 23:34:14 10° NE visible
25 Aug 5.8 01:09:53 10° NNW 01:10:37 15° NNW 01:10:37 15° NNW visible
25 Aug 5.7 23:39:24 10° NNE 23:39:56 12° NNE 23:39:56 12° NNE visible
26 Aug 5.9 01:15:53 10° NNW 01:16:19 12° NNW 01:16:19 12° NNW visible
26 Aug 5.6 23:44:50 10° NNE 23:45:38 14° NNE 23:45:38 14° NNE visible
27 Aug 6.1 01:22:00 10° NW 01:22:01 10° NW 01:22:01 10° NW visible
27 Aug 5.6 23:50:25 10° N 23:51:21 16° NNE 23:51:21 16° NNE visible
28 Aug 5.6 23:56:05 10° N 23:57:04 17° N 23:57:04 17° N visible
